| time (UTC) | temp F | wind direction | speed MPH | gust MPH | rain 1hr in | rain 24hr in | rain mn in | humidity % | barometer mb |
| 20260509024523 | 40 | 165 | 1.0 | 4.0 | 0.00 | 0.00 | 0.00 | 81 | 1013.5 |
| 20260509024009 | 40 | 178 | 2.0 | 4.0 | 0.00 | 0.00 | 0.00 | 81 | 1013.5 |
| 20260509023508 | 40 | 51 | 1.0 | 4.0 | 0.00 | 0.00 | 0.00 | 80 | 1013.4 |
| 20260509023040 | 40 | 227 | 2.0 | 5.0 | 0.00 | 0.00 | 0.00 | 80 | 1013.3 |
| 20260509022507 | 40 | 259 | 2.0 | 6.0 | 0.00 | 0.00 | 0.00 | 80 | 1013.3 |
| 20260509022011 | 40 | 234 | 4.0 | 6.0 | 0.00 | 0.00 | 0.00 | 80 | 1013.2 |
| 20260509021528 | 40 | 178 | 2.0 | 5.0 | 0.00 | 0.00 | 0.00 | 80 | 1013.1 |
| 20260509021007 | 41 | 205 | 1.0 | 3.0 | 0.00 | 0.00 | 0.00 | 79 | 1013.1 |
| 20260509020504 | 41 | 257 | 1.0 | 4.0 | 0.00 | 0.00 | 0.00 | 79 | 1013.0 |
| 20260509020018 | 41 | 265 | 2.0 | 4.0 | 0.00 | 0.00 | 0.00 | 79 | 1012.9 |
| 20260509015506 | 41 | 255 | 2.0 | 3.0 | 0.00 | 0.00 | 0.00 | 79 | 1012.8 |
| 20260509015007 | 42 | 196 | 0.0 | 4.0 | 0.00 | 0.00 | 0.00 | 80 | 1012.8 |
| 20260509014526 | 42 | 205 | 2.0 | 4.0 | 0.00 | 0.00 | 0.00 | 79 | 1012.9 |
| 20260509014003 | 42 | 238 | 1.0 | 3.0 | 0.00 | 0.00 | 0.00 | 78 | 1012.8 |
| 20260509013503 | 43 | 238 | 1.0 | 3.0 | 0.00 | 0.00 | 0.00 | 77 | 1012.7 |
| 20260509013006 | 43 | 243 | 1.0 | 4.0 | 0.00 | 0.00 | 0.00 | 76 | 1012.7 |
| 20260509012503 | 43 | 257 | 2.0 | 4.0 | 0.00 | 0.00 | 0.00 | 75 | 1012.7 |
| 20260509012003 | 44 | 232 | 2.0 | 3.0 | 0.00 | 0.00 | 0.00 | 75 | 1012.5 |
| 20260509011512 | 44 | 51 | 1.0 | 3.0 | 0.00 | 0.00 | 0.00 | 73 | 1012.5 |
| 20260509011003 | 44 | 265 | 0.0 | 4.0 | 0.00 | 0.00 | 0.00 | 72 | 1012.5 |
| 20260509010506 | 45 | 265 | 2.0 | 5.0 | 0.00 | 0.00 | 0.00 | 71 | 1012.4 |
| 20260509010019 | 46 | 241 | 2.0 | 5.0 | 0.00 | 0.00 | 0.00 | 70 | 1012.2 |
| 20260509005505 | 46 | 234 | 2.0 | 4.0 | 0.00 | 0.00 | 0.00 | 69 | 1012.2 |
| 20260509005007 | 46 | 232 | 2.0 | 4.0 | 0.00 | 0.00 | 0.00 | 67 | 1012.1 |
| 20260509004520 | 47 | 265 | 2.0 | 4.0 | 0.00 | 0.00 | 0.00 | 66 | 1012.1 |
| 20260509004007 | 47 | 205 | 1.0 | 3.0 | 0.00 | 0.00 | 0.00 | 65 | 1012.0 |
| 20260509003512 | 48 | 319 | 1.0 | 4.0 | 0.00 | 0.00 | 0.00 | 64 | 1011.9 |
| 20260509003004 | 48 | 330 | 2.0 | 4.0 | 0.00 | 0.00 | 0.00 | 62 | 1011.7 |
| 20260509002501 | 48 | 309 | 2.0 | 4.0 | 0.00 | 0.00 | 0.00 | 63 | 1011.6 |
| 20260509002004 | 49 | 325 | 0.0 | 3.0 | 0.00 | 0.00 | 0.00 | 64 | 1011.6 |
| 20260509001511 | 49 | 232 | 0.0 | 3.0 | 0.00 | 0.00 | 0.00 | 63 | 1011.6 |
| 20260509001002 | 49 | 265 | 0.0 | 3.0 | 0.00 | 0.00 | 0.00 | 61 | 1011.6 |
| 20260509000504 | 50 | 51 | 0.0 | 3.0 | 0.00 | 0.00 | 0.00 | 59 | 1011.6 |
| 20260509000013 | 50 | 298 | 0.0 | 6.0 | 0.00 | 0.00 | 0.00 | 58 | 1011.5 |
| 20260508235507 | 50 | 238 | 1.0 | 6.0 | 0.00 | 0.00 | 0.00 | 61 | 1011.4 |
| 20260508235007 | 50 | 63 | 2.0 | 4.0 | 0.00 | 0.00 | 0.00 | 57 | 1011.3 |
| 20260508234523 | 51 | 51 | 0.0 | 3.0 | 0.00 | 0.00 | 0.00 | 56 | 1011.3 |
| 20260508234010 | 51 | 34 | 2.0 | 4.0 | 0.00 | 0.00 | 0.00 | 54 | 1011.2 |
| 20260508233506 | 51 | 282 | 2.0 | 4.0 | 0.00 | 0.00 | 0.00 | 56 | 1011.1 |
| 20260508233024 | 52 | 168 | 1.0 | 6.0 | 0.00 | 0.00 | 0.00 | 54 | 1011.1 |
| 20260508232509 | 52 | 17 | 1.0 | 6.0 | 0.00 | 0.00 | 0.00 | 56 | 1011.1 |
| 20260508232007 | 52 | 24 | 1.0 | 8.0 | 0.00 | 0.00 | 0.00 | 58 | 1011.0 |
| 20260508231526 | 52 | 170 | 2.0 | 8.0 | 0.00 | 0.00 | 0.00 | 56 | 1011.0 |
| 20260508231009 | 52 | 225 | 2.0 | 10.0 | 0.00 | 0.00 | 0.00 | 57 | 1010.9 |
| 20260508230504 | 52 | 51 | 2.0 | 10.0 | 0.00 | 0.00 | 0.00 | 55 | 1011.0 |
| 20260508230011 | 51 | 311 | 2.0 | 9.0 | 0.00 | 0.00 | 0.00 | 57 | 1010.9 |
| 20260508225508 | 51 | 291 | 1.0 | 9.0 | 0.00 | 0.00 | 0.00 | 59 | 1010.9 |
| 20260508225005 | 51 | 30 | 4.0 | 11.0 | 0.00 | 0.00 | 0.00 | 58 | 1010.8 |
| 20260508224514 | 51 | 340 | 5.0 | 12.0 | 0.00 | 0.00 | 0.00 | 57 | 1010.9 |
| 20260508224006 | 51 | 339 | 1.0 | 12.0 | 0.00 | 0.00 | 0.00 | 59 | 1010.8 |
| 20260508223512 | 51 | 340 | 3.0 | 13.0 | 0.00 | 0.00 | 0.00 | 58 | 1010.8 |
| 20260508223020 | 51 | 22 | 4.0 | 13.0 | 0.00 | 0.00 | 0.00 | 58 | 1010.8 |
| 20260508222507 | 51 | 26 | 4.0 | 9.0 | 0.00 | 0.00 | 0.00 | 57 | 1010.7 |
| 20260508222010 | 52 | 13 | 4.0 | 11.0 | 0.00 | 0.00 | 0.00 | 57 | 1010.6 |
| 20260508221523 | 52 | 13 | 6.0 | 11.0 | 0.00 | 0.00 | 0.00 | 55 | 1010.6 |
| 20260508221009 | 52 | 319 | 6.0 | 15.0 | 0.00 | 0.00 | 0.00 | 57 | 1010.7 |
| 20260508220509 | 52 | 41 | 7.0 | 15.0 | 0.00 | 0.00 | 0.00 | 57 | 1010.6 |
| 20260508220025 | 52 | 330 | 6.0 | 12.0 | 0.00 | 0.00 | 0.00 | 57 | 1010.6 |
| 20260508215510 | 52 | 28 | 5.0 | 13.0 | 0.00 | 0.00 | 0.00 | 60 | 1010.6 |
| 20260508215007 | 52 | 31 | 5.0 | 15.0 | 0.00 | 0.00 | 0.00 | 62 | 1010.7 |
| 20260508214512 | 52 | 45 | 7.0 | 15.0 | 0.00 | 0.00 | 0.00 | 61 | 1010.6 |
| 20260508214005 | 51 | 38 | 7.0 | 12.0 | 0.00 | 0.00 | 0.00 | 62 | 1010.6 |
| 20260508213511 | 52 | 42 | 7.0 | 18.0 | 0.00 | 0.00 | 0.00 | 63 | 1010.6 |
| 20260508213019 | 51 | 50 | 7.0 | 18.0 | 0.00 | 0.00 | 0.00 | 59 | 1010.6 |
| 20260508212509 | 51 | 336 | 10.0 | 18.0 | 0.00 | 0.00 | 0.00 | 58 | 1010.6 |
| 20260508212010 | 52 | 344 | 6.0 | 23.0 | 0.00 | 0.00 | 0.00 | 56 | 1010.5 |
| 20260508211527 | 54 | 324 | 12.0 | 23.0 | 0.00 | 0.00 | 0.00 | 49 | 1010.3 |
| 20260508211009 | 55 | 333 | 10.0 | 18.0 | 0.00 | 0.00 | 0.00 | 45 | 1010.2 |
| 20260508210509 | 55 | 24 | 2.0 | 10.0 | 0.00 | 0.00 | 0.00 | 43 | 1009.9 |
| 20260508210027 | 56 | 205 | 5.0 | 14.0 | 0.00 | 0.00 | 0.00 | 41 | 1009.9 |
| 20260508205510 | 56 | 247 | 3.0 | 16.0 | 0.00 | 0.00 | 0.00 | 40 | 1009.9 |
| 20260508205011 | 56 | 277 | 7.0 | 16.0 | 0.00 | 0.00 | 0.00 | 39 | 1009.7 |
| 20260508204530 | 57 | 221 | 8.0 | 21.0 | 0.00 | 0.00 | 0.00 | 43 | 1009.6 |
| 20260508204010 | 57 | 334 | 4.0 | 21.0 | 0.00 | 0.00 | 0.00 | 40 | 1009.6 |
| 20260508203505 | 57 | 223 | 8.0 | 20.0 | 0.00 | 0.00 | 0.00 | 40 | 1009.6 |
| 20260508203017 | 57 | 240 | 4.0 | 18.0 | 0.00 | 0.00 | 0.00 | 42 | 1009.7 |
| 20260508202505 | 57 | 254 | 8.0 | 18.0 | 0.00 | 0.00 | 0.00 | 40 | 1009.8 |
| 20260508202006 | 58 | 257 | 8.0 | 17.0 | 0.00 | 0.00 | 0.00 | 40 | 1009.7 |
| 20260508201518 | 58 | 139 | 3.0 | 17.0 | 0.00 | 0.00 | 0.00 | 39 | 1009.7 |
| 20260508201009 | 58 | 234 | 4.0 | 14.0 | 0.00 | 0.00 | 0.00 | 45 | 1009.6 |
| 20260508200510 | 57 | 254 | 5.0 | 14.0 | 0.00 | 0.00 | 0.00 | 46 | 1009.6 |
| 20260508200030 | 57 | 213 | 5.0 | 16.0 | 0.00 | 0.00 | 0.00 | 43 | 1009.5 |
| 20260508195509 | 57 | 344 | 6.0 | 17.0 | 0.00 | 0.00 | 0.00 | 41 | 1009.7 |
| 20260508195011 | 57 | 347 | 7.0 | 17.0 | 0.00 | 0.00 | 0.00 | 41 | 1009.7 |
| 20260508194527 | 57 | 237 | 5.0 | 16.0 | 0.00 | 0.00 | 0.00 | 45 | 1009.9 |
| 20260508194003 | 57 | 280 | 5.0 | 16.0 | 0.00 | 0.00 | 0.00 | 45 | 1009.8 |
| 20260508193503 | 57 | 270 | 7.0 | 20.0 | 0.00 | 0.00 | 0.00 | 45 | 1009.8 |
| 20260508193028 | 58 | 250 | 10.0 | 20.0 | 0.00 | 0.00 | 0.00 | 41 | 1009.8 |
| 20260508192509 | 58 | 234 | 5.0 | 19.0 | 0.00 | 0.00 | 0.00 | 49 | 1009.7 |
| 20260508192010 | 57 | 277 | 11.0 | 19.0 | 0.00 | 0.00 | 0.00 | 44 | 1009.8 |
| 20260508191517 | 57 | 202 | 11.0 | 19.0 | 0.00 | 0.00 | 0.00 | 40 | 1009.7 |
| 20260508191008 | 58 | 236 | 10.0 | 21.0 | 0.00 | 0.00 | 0.00 | 40 | 1009.7 |
| 20260508190506 | 58 | 284 | 8.0 | 21.0 | 0.00 | 0.00 | 0.00 | 41 | 1009.9 |
| 20260508190004 | 59 | 282 | 6.0 | 25.0 | 0.00 | 0.00 | 0.00 | 39 | 1009.7 |
| 20260508185503 | 58 | 309 | 5.0 | 25.0 | 0.00 | 0.00 | 0.00 | 43 | 1009.7 |
| 20260508185003 | 57 | 229 | 5.0 | 16.0 | 0.00 | 0.00 | 0.00 | 46 | 1009.8 |
| 20260508184504 | 56 | 227 | 10.0 | 16.0 | 0.00 | 0.00 | 0.00 | 42 | 1009.8 |
| 20260508184003 | 56 | 225 | 7.0 | 16.0 | 0.00 | 0.00 | 0.00 | 42 | 1009.9 |
| 20260508183503 | 57 | 273 | 7.0 | 17.0 | 0.00 | 0.00 | 0.00 | 40 | 1009.9 |
| 20260508183026 | 57 | 344 | 5.0 | 17.0 | 0.00 | 0.00 | 0.00 | 41 | 1009.8 |
| 20260508182503 | 56 | 225 | 4.0 | 14.0 | 0.00 | 0.00 | 0.00 | 43 | 1009.9 |
| 20260508182003 | 57 | 219 | 10.0 | 14.0 | 0.00 | 0.00 | 0.00 | 43 | 1009.9 |
| 20260508181516 | 57 | 269 | 4.0 | 18.0 | 0.00 | 0.00 | 0.00 | 41 | 1009.9 |
| 20260508181009 | 55 | 314 | 4.0 | 18.0 | 0.00 | 0.00 | 0.00 | 43 | 1009.9 |
| 20260508180507 | 55 | 344 | 3.0 | 28.0 | 0.00 | 0.00 | 0.00 | 42 | 1010.0 |
| 20260508180023 | 56 | 273 | 7.0 | 28.0 | 0.00 | 0.00 | 0.00 | 42 | 1010.0 |
| 20260508175507 | 57 | 211 | 8.0 | 19.0 | 0.00 | 0.00 | 0.00 | 44 | 1010.0 |
| 20260508175012 | 56 | 265 | 6.0 | 19.0 | 0.00 | 0.00 | 0.00 | 44 | 1010.0 |
| 20260508174510 | 55 | 231 | 4.0 | 19.0 | 0.00 | 0.00 | 0.00 | 44 | 1009.9 |
| 20260508174003 | 57 | 242 | 9.0 | 23.0 | 0.00 | 0.00 | 0.00 | 39 | 1009.8 |
| 20260508173504 | 57 | 236 | 8.0 | 23.0 | 0.00 | 0.00 | 0.00 | 42 | 1010.0 |
| 20260508173011 | 56 | 291 | 10.0 | 23.0 | 0.00 | 0.00 | 0.00 | 44 | 1009.9 |
| 20260508172506 | 56 | 248 | 3.0 | 17.0 | 0.00 | 0.00 | 0.00 | 38 | 1010.1 |
| 20260508172003 | 56 | 329 | 5.0 | 17.0 | 0.00 | 0.00 | 0.00 | 43 | 1010.0 |
| 20260508171511 | 55 | 17 | 7.0 | 16.0 | 0.00 | 0.00 | 0.00 | 41 | 1010.1 |
| 20260508171004 | 55 | 317 | 6.0 | 16.0 | 0.00 | 0.00 | 0.00 | 41 | 1010.1 |
| 20260508170504 | 55 | 232 | 9.0 | 16.0 | 0.00 | 0.00 | 0.00 | 40 | 1010.0 |
| 20260508170018 | 55 | 250 | 5.0 | 14.0 | 0.00 | 0.00 | 0.00 | 45 | 1010.0 |
| 20260508165506 | 55 | 269 | 5.0 | 12.0 | 0.00 | 0.00 | 0.00 | 39 | 1010.0 |
| 20260508165009 | 56 | 86 | 4.0 | 15.0 | 0.00 | 0.00 | 0.00 | 41 | 1010.0 |
| 20260508164522 | 55 | 215 | 7.0 | 15.0 | 0.00 | 0.00 | 0.00 | 44 | 1009.9 |
| 20260508164007 | 55 | 234 | 4.0 | 14.0 | 0.00 | 0.00 | 0.00 | 41 | 1009.9 |
| 20260508163507 | 54 | 310 | 3.0 | 11.0 | 0.00 | 0.00 | 0.00 | 42 | 1010.1 |
| 20260508163039 | 54 | 305 | 4.0 | 11.0 | 0.00 | 0.00 | 0.00 | 40 | 1010.1 |
| 20260508162504 | 54 | 312 | 3.0 | 11.0 | 0.00 | 0.00 | 0.00 | 41 | 1010.1 |
| 20260508162006 | 54 | 288 | 3.0 | 10.0 | 0.00 | 0.00 | 0.00 | 40 | 1010.1 |
| 20260508161512 | 54 | 202 | 4.0 | 10.0 | 0.00 | 0.00 | 0.00 | 39 | 1010.0 |
| 20260508161005 | 54 | 309 | 4.0 | 14.0 | 0.00 | 0.00 | 0.00 | 39 | 1010.1 |
| 20260508160504 | 54 | 51 | 5.0 | 17.0 | 0.00 | 0.00 | 0.00 | 42 | 1010.1 |
| 20260508160016 | 55 | 247 | 5.0 | 17.0 | 0.00 | 0.00 | 0.00 | 40 | 1010.1 |
| 20260508155505 | 55 | 295 | 6.0 | 12.0 | 0.00 | 0.00 | 0.00 | 37 | 1010.1 |
| 20260508155011 | 54 | 20 | 3.0 | 8.0 | 0.00 | 0.00 | 0.00 | 47 | 1010.1 |
| 20260508154519 | 54 | 178 | 3.0 | 14.0 | 0.00 | 0.00 | 0.00 | 40 | 1010.1 |
| 20260508154015 | 55 | 277 | 8.0 | 14.0 | 0.00 | 0.00 | 0.00 | 40 | 1010.2 |
| 20260508153509 | 54 | 225 | 4.0 | 15.0 | 0.00 | 0.00 | 0.00 | 45 | 1010.2 |
| 20260508153029 | 55 | 265 | 6.0 | 16.0 | 0.00 | 0.00 | 0.00 | 37 | 1010.1 |
| 20260508152508 | 56 | 245 | 7.0 | 16.0 | 0.00 | 0.00 | 0.00 | 44 | 1009.9 |
| 20260508152009 | 56 | 229 | 6.0 | 21.0 | 0.00 | 0.00 | 0.00 | 40 | 1010.0 |
| 20260508151531 | 56 | 234 | 10.0 | 21.0 | 0.00 | 0.00 | 0.00 | 37 | 1009.9 |
| 20260508151006 | 55 | 238 | 7.0 | 15.0 | 0.00 | 0.00 | 0.00 | 41 | 1009.8 |
| 20260508150503 | 55 | 153 | 2.0 | 15.0 | 0.00 | 0.00 | 0.00 | 43 | 1009.8 |
| 20260508150012 | 55 | 281 | 3.0 | 15.0 | 0.00 | 0.00 | 0.00 | 43 | 1009.9 |
| 20260508145507 | 55 | 267 | 5.0 | 17.0 | 0.00 | 0.00 | 0.00 | 34 | 1010.0 |
| 20260508145009 | 56 | 321 | 10.0 | 17.0 | 0.00 | 0.00 | 0.00 | 42 | 1009.9 |
| 20260508144519 | 55 | 279 | 8.0 | 15.0 | 0.00 | 0.00 | 0.00 | 41 | 1009.9 |
| 20260508144008 | 55 | 280 | 8.0 | 19.0 | 0.00 | 0.00 | 0.00 | 40 | 1010.1 |
| 20260508143510 | 55 | 225 | 7.0 | 19.0 | 0.00 | 0.00 | 0.00 | 39 | 1010.1 |
| 20260508143019 | 55 | 218 | 9.0 | 17.0 | 0.00 | 0.00 | 0.00 | 42 | 1010.0 |
| 20260508142506 | 55 | 248 | 6.0 | 14.0 | 0.00 | 0.00 | 0.00 | 46 | 1010.0 |
| 20260508142009 | 55 | 244 | 4.0 | 17.0 | 0.00 | 0.00 | 0.00 | 46 | 1010.0 |
| 20260508141526 | 54 | 282 | 6.0 | 17.0 | 0.00 | 0.00 | 0.00 | 42 | 1010.1 |
| 20260508141010 | 53 | 340 | 4.0 | 14.0 | 0.00 | 0.00 | 0.00 | 45 | 1010.3 |
| 20260508140516 | 53 | 257 | 4.0 | 17.0 | 0.00 | 0.00 | 0.00 | 46 | 1010.2 |
| 20260508140030 | 52 | 270 | 2.0 | 17.0 | 0.00 | 0.00 | 0.00 | 46 | 1010.3 |
| 20260508135512 | 53 | 225 | 4.0 | 12.0 | 0.00 | 0.00 | 0.00 | 50 | 1010.4 |
| 20260508135007 | 52 | 212 | 5.0 | 9.0 | 0.00 | 0.00 | 0.00 | 53 | 1010.5 |
| 20260508134523 | 53 | 293 | 2.0 | 8.0 | 0.00 | 0.00 | 0.00 | 50 | 1010.6 |
| 20260508134005 | 51 | 76 | 3.0 | 9.0 | 0.00 | 0.00 | 0.00 | 51 | 1010.7 |
| 20260508133509 | 50 | 265 | 3.0 | 10.0 | 0.00 | 0.00 | 0.00 | 52 | 1010.8 |
| 20260508133030 | 50 | 325 | 2.0 | 10.0 | 0.00 | 0.00 | 0.00 | 54 | 1010.9 |
| 20260508132507 | 49 | 298 | 1.0 | 9.0 | 0.00 | 0.00 | 0.00 | 60 | 1010.9 |
| 20260508132007 | 50 | 334 | 3.0 | 9.0 | 0.00 | 0.00 | 0.00 | 53 | 1010.9 |
| 20260508131523 | 50 | 293 | 3.0 | 11.0 | 0.00 | 0.00 | 0.00 | 64 | 1010.9 |
| 20260508131007 | 50 | 328 | 4.0 | 11.0 | 0.00 | 0.00 | 0.00 | 55 | 1011.0 |
| 20260508130511 | 51 | 340 | 2.0 | 13.0 | 0.00 | 0.00 | 0.00 | 58 | 1010.9 |
| 20260508130024 | 50 | 261 | 5.0 | 13.0 | 0.00 | 0.00 | 0.00 | 55 | 1010.9 |
| 20260508125511 | 49 | 51 | 1.0 | 9.0 | 0.00 | 0.00 | 0.00 | 60 | 1011.0 |
| 20260508125011 | 49 | 259 | 2.0 | 10.0 | 0.00 | 0.00 | 0.00 | 57 | 1011.0 |
| 20260508124528 | 48 | 265 | 4.0 | 10.0 | 0.00 | 0.00 | 0.00 | 60 | 1011.0 |
| 20260508124012 | 47 | 244 | 4.0 | 10.0 | 0.00 | 0.00 | 0.00 | 64 | 1011.1 |
| 20260508123503 | 45 | 225 | 2.0 | 8.0 | 0.00 | 0.00 | 0.00 | 64 | 1011.1 |
| 20260508123016 | 44 | 221 | 3.0 | 11.0 | 0.00 | 0.00 | 0.00 | 67 | 1011.1 |
| 20260508122506 | 44 | 175 | 2.0 | 11.0 | 0.00 | 0.00 | 0.00 | 66 | 1011.1 |
| 20260508122011 | 44 | 212 | 3.0 | 10.0 | 0.00 | 0.00 | 0.00 | 69 | 1011.1 |
| 20260508121520 | 43 | 167 | 5.0 | 9.0 | 0.00 | 0.00 | 0.00 | 71 | 1011.0 |
| 20260508121012 | 43 | 194 | 4.0 | 13.0 | 0.00 | 0.00 | 0.00 | 74 | 1011.0 |
| 20260508120508 | 43 | 198 | 7.0 | 13.0 | 0.00 | 0.00 | 0.00 | 73 | 1010.9 |
| 20260508120024 | 42 | 183 | 5.0 | 10.0 | 0.00 | 0.00 | 0.00 | 77 | 1011.0 |
| 20260508115515 | 42 | 153 | 5.0 | 8.0 | 0.00 | 0.00 | 0.00 | 77 | 1011.1 |
| 20260508115011 | 42 | 201 | 5.0 | 10.0 | 0.00 | 0.00 | 0.00 | 79 | 1011.0 |
| 20260508114524 | 41 | 190 | 4.0 | 10.0 | 0.00 | 0.00 | 0.00 | 79 | 1011.0 |
| 20260508114014 | 42 | 196 | 5.0 | 10.0 | 0.00 | 0.00 | 0.00 | 78 | 1011.0 |
| 20260508113510 | 42 | 200 | 6.0 | 10.0 | 0.00 | 0.00 | 0.00 | 78 | 1011.0 |
| 20260508113026 | 42 | 212 | 4.0 | 8.0 | 0.00 | 0.00 | 0.00 | 80 | 1011.0 |
| 20260508112512 | 41 | 178 | 4.0 | 8.0 | 0.00 | 0.00 | 0.00 | 82 | 1010.9 |
| 20260508112009 | 41 | 157 | 5.0 | 8.0 | 0.00 | 0.00 | 0.00 | 84 | 1010.8 |
| 20260508111520 | 40 | 163 | 5.0 | 7.0 | 0.00 | 0.00 | 0.00 | 86 | 1010.8 |
| 20260508111011 | 39 | 175 | 4.0 | 8.0 | 0.00 | 0.00 | 0.00 | 87 | 1010.7 |
| 20260508110507 | 38 | 182 | 4.0 | 9.0 | 0.00 | 0.00 | 0.00 | 89 | 1010.7 |
| 20260508110029 | 37 | 236 | 3.0 | 9.0 | 0.00 | 0.00 | 0.00 | 89 | 1010.7 |
| 20260508105510 | 37 | 183 | 5.0 | 8.0 | 0.00 | 0.00 | 0.00 | 90 | 1010.6 |
| 20260508105009 | 36 | 202 | 5.0 | 8.0 | 0.00 | 0.00 | 0.00 | 90 | 1010.7 |
| 20260508104524 | 36 | 186 | 4.0 | 7.0 | 0.00 | 0.00 | 0.00 | 90 | 1010.7 |
| 20260508104002 | 36 | 212 | 2.0 | 7.0 | 0.00 | 0.00 | 0.00 | 90 | 1010.7 |
| 20260508103503 | 36 | 207 | 4.0 | 7.0 | 0.00 | 0.00 | 0.00 | 91 | 1010.7 |
| 20260508103003 | 35 | 221 | 4.0 | 7.0 | 0.00 | 0.00 | 0.00 | 91 | 1010.6 |
| 20260508102501 | 35 | 196 | 3.0 | 6.0 | 0.00 | 0.00 | 0.00 | 91 | 1010.4 |
| 20260508102003 | 35 | 207 | 3.0 | 5.0 | 0.00 | 0.00 | 0.00 | 91 | 1010.4 |
| 20260508101513 | 35 | 212 | 1.0 | 5.0 | 0.00 | 0.00 | 0.00 | 91 | 1010.3 |
| 20260508101002 | 34 | 205 | 2.0 | 5.0 | 0.00 | 0.00 | 0.00 | 91 | 1010.3 |
| 20260508100502 | 34 | 184 | 3.0 | 7.0 | 0.00 | 0.00 | 0.00 | 91 | 1010.3 |
| 20260508100005 | 34 | 224 | 4.0 | 9.0 | 0.00 | 0.00 | 0.00 | 91 | 1010.3 |
| 20260508095503 | 34 | 210 | 5.0 | 9.0 | 0.00 | 0.00 | 0.00 | 91 | 1010.4 |
| 20260508095003 | 34 | 200 | 5.0 | 9.0 | 0.00 | 0.00 | 0.00 | 91 | 1010.3 |
| 20260508094502 | 33 | 216 | 4.0 | 6.0 | 0.00 | 0.00 | 0.00 | 91 | 1010.3 |
| 20260508094002 | 33 | 221 | 3.0 | 5.0 | 0.00 | 0.00 | 0.00 | 91 | 1010.3 |
| 20260508093502 | 33 | 218 | 2.0 | 5.0 | 0.00 | 0.00 | 0.00 | 91 | 1010.3 |
| 20260508093013 | 33 | 243 | 3.0 | 5.0 | 0.00 | 0.00 | 0.00 | 91 | 1010.2 |
| 20260508092501 | 33 | 246 | 2.0 | 5.0 | 0.00 | 0.00 | 0.00 | 91 | 1010.3 |
| 20260508092002 | 33 | 247 | 1.0 | 3.0 | 0.00 | 0.00 | 0.00 | 91 | 1010.2 |
| 20260508091503 | 33 | 265 | 1.0 | 3.0 | 0.00 | 0.00 | 0.00 | 91 | 1010.2 |
| 20260508091006 | 34 | 232 | 2.0 | 3.0 | 0.00 | 0.00 | 0.00 | 91 | 1010.2 |
| 20260508090504 | 34 | 238 | 1.0 | 3.0 | 0.00 | 0.00 | 0.00 | 91 | 1010.2 |
| 20260508090011 | 33 | 238 | 2.0 | 3.0 | 0.00 | 0.00 | 0.00 | 91 | 1010.2 |
| 20260508085503 | 33 | 215 | 2.0 | 3.0 | 0.00 | 0.00 | 0.00 | 91 | 1010.2 |
| 20260508085003 | 33 | 254 | 2.0 | 3.0 | 0.00 | 0.00 | 0.00 | 91 | 1010.1 |
| 20260508084504 | 33 | 247 | 1.0 | 2.0 | 0.00 | 0.00 | 0.00 | 91 | 1010.0 |
| 20260508084003 | 33 | 137 | 0.0 | 1.0 | 0.00 | 0.00 | 0.00 | 91 | 1009.9 |
| 20260508083502 | 33 | 146 | 0.0 | 1.0 | 0.00 | 0.00 | 0.00 | 91 | 1009.9 |
| 20260508083002 | 33 | 51 | 0.0 | 2.0 | 0.00 | 0.00 | 0.00 | 91 | 1009.8 |
| 20260508082502 | 33 | 178 | 0.0 | 2.0 | 0.00 | 0.00 | 0.00 | 91 | 1009.7 |
| 20260508082002 | 34 | 221 | 0.0 | 3.0 | 0.00 | 0.00 | 0.00 | 91 | 1009.8 |
| 20260508081504 | 34 | 254 | 1.0 | 3.0 | 0.00 | 0.00 | 0.00 | 91 | 1009.8 |
| 20260508081003 | 33 | 265 | 1.0 | 3.0 | 0.00 | 0.00 | 0.00 | 91 | 1009.8 |
| 20260508080505 | 33 | 265 | 1.0 | 3.0 | 0.00 | 0.00 | 0.00 | 91 | 1009.9 |
| 20260508080004 | 33 | 232 | 1.0 | 3.0 | 0.00 | 0.00 | 0.00 | 91 | 1009.9 |
| 20260508075507 | 33 | 232 | 1.0 | 3.0 | 0.00 | 0.00 | 0.00 | 91 | 1010.0 |
| 20260508075003 | 33 | 265 | 0.0 | 4.0 | 0.00 | 0.00 | 0.00 | 91 | 1009.8 |
| 20260508074512 | 33 | 221 | 2.0 | 4.0 | 0.00 | 0.00 | 0.00 | 91 | 1009.7 |
| 20260508074003 | 33 | 212 | 2.0 | 3.0 | 0.00 | 0.00 | 0.00 | 90 | 1009.7 |
| 20260508073507 | 33 | 196 | 1.0 | 3.0 | 0.00 | 0.00 | 0.00 | 91 | 1009.6 |
| 20260508073006 | 33 | 234 | 1.0 | 3.0 | 0.00 | 0.00 | 0.00 | 91 | 1009.5 |
| 20260508072502 | 33 | 254 | 1.0 | 3.0 | 0.00 | 0.00 | 0.00 | 90 | 1009.4 |
| 20260508072003 | 33 | 291 | 1.0 | 3.0 | 0.00 | 0.00 | 0.00 | 90 | 1009.3 |
| 20260508071505 | 33 | 265 | 1.0 | 3.0 | 0.00 | 0.00 | 0.00 | 90 | 1009.2 |
| 20260508071002 | 33 | 247 | 1.0 | 2.0 | 0.00 | 0.00 | 0.00 | 90 | 1009.2 |
| 20260508070503 | 33 | 221 | 0.0 | 2.0 | 0.00 | 0.00 | 0.00 | 90 | 1009.2 |
| 20260508070005 | 33 | 93 | 0.0 | 2.0 | 0.00 | 0.00 | 0.00 | 90 | 1009.2 |
| 20260508065503 | 34 | 265 | 0.0 | 2.0 | 0.00 | 0.00 | 0.00 | 89 | 1009.3 |
| 20260508065004 | 33 | 221 | 0.0 | 2.0 | 0.00 | 0.00 | 0.00 | 89 | 1009.2 |
| 20260508064511 | 33 | 9 | 1.0 | 2.0 | 0.00 | 0.00 | 0.00 | 89 | 1009.1 |
| 20260508064003 | 34 | 334 | 1.0 | 2.0 | 0.00 | 0.00 | 0.00 | 89 | 1009.1 |
| 20260508063506 | 34 | 265 | 1.0 | 2.0 | 0.00 | 0.00 | 0.00 | 89 | 1009.2 |
| 20260508063005 | 34 | 309 | 0.0 | 1.0 | 0.00 | 0.00 | 0.00 | 89 | 1009.1 |
| 20260508062503 | 34 | 205 | 0.0 | 2.0 | 0.00 | 0.00 | 0.00 | 89 | 1009.2 |
| 20260508062003 | 34 | 178 | 0.0 | 2.0 | 0.00 | 0.00 | 0.00 | 89 | 1009.2 |
| 20260508061507 | 34 | 265 | 1.0 | 2.0 | 0.00 | 0.00 | 0.00 | 88 | 1009.2 |
| 20260508061006 | 35 | 51 | 1.0 | 3.0 | 0.00 | 0.00 | 0.00 | 88 | 1009.2 |
| 20260508060502 | 35 | 291 | 1.0 | 3.0 | 0.00 | 0.00 | 0.00 | 88 | 1009.2 |
| 20260508060004 | 35 | 236 | 2.0 | 3.0 | 0.00 | 0.00 | 0.00 | 88 | 1009.2 |
| 20260508055504 | 35 | 200 | 1.0 | 3.0 | 0.00 | 0.00 | 0.00 | 88 | 1009.3 |
| 20260508055006 | 35 | 217 | 2.0 | 3.0 | 0.00 | 0.00 | 0.00 | 87 | 1009.3 |
| 20260508054509 | 35 | 234 | 2.0 | 3.0 | 0.00 | 0.00 | 0.00 | 87 | 1009.3 |
| 20260508054003 | 36 | 221 | 1.0 | 3.0 | 0.00 | 0.00 | 0.00 | 87 | 1009.3 |
| 20260508053504 | 36 | 247 | 1.0 | 3.0 | 0.00 | 0.00 | 0.00 | 87 | 1009.3 |
| 20260508053007 | 36 | 255 | 2.0 | 3.0 | 0.00 | 0.00 | 0.00 | 87 | 1009.2 |
| 20260508052504 | 36 | 265 | 1.0 | 2.0 | 0.00 | 0.00 | 0.00 | 87 | 1009.3 |
| 20260508052004 | 36 | 238 | 1.0 | 2.0 | 0.00 | 0.00 | 0.00 | 87 | 1009.3 |
| 20260508051509 | 36 | 232 | 0.0 | 1.0 | 0.00 | 0.00 | 0.00 | 86 | 1009.4 |
| 20260508051003 | 36 | 221 | 0.0 | 1.0 | 0.00 | 0.00 | 0.00 | 86 | 1009.4 |
| 20260508050503 | 36 | 93 | 0.0 | 2.0 | 0.00 | 0.00 | 0.00 | 86 | 1009.5 |
| 20260508050006 | 37 | 309 | 0.0 | 2.0 | 0.00 | 0.00 | 0.00 | 86 | 1009.6 |
| 20260508045502 | 36 | 291 | 1.0 | 2.0 | 0.00 | 0.00 | 0.00 | 86 | 1009.5 |
| 20260508045002 | 37 | 9 | 0.0 | 2.0 | 0.00 | 0.00 | 0.00 | 85 | 1009.5 |
| 20260508044514 | 37 | 309 | 0.0 | 3.0 | 0.00 | 0.00 | 0.00 | 85 | 1009.6 |
| 20260508044004 | 37 | 238 | 1.0 | 4.0 | 0.00 | 0.00 | 0.00 | 85 | 1009.6 |
| 20260508043505 | 37 | 238 | 2.0 | 4.0 | 0.00 | 0.00 | 0.00 | 85 | 1009.7 |
| 20260508043007 | 37 | 234 | 3.0 | 4.0 | 0.00 | 0.00 | 0.00 | 85 | 1009.7 |
| 20260508042507 | 37 | 227 | 1.0 | 3.0 | 0.00 | 0.00 | 0.00 | 85 | 1009.7 |
| 20260508042006 | 37 | 190 | 1.0 | 3.0 | 0.00 | 0.00 | 0.00 | 85 | 1009.7 |
| 20260508041509 | 38 | 205 | 0.0 | 3.0 | 0.00 | 0.00 | 0.00 | 84 | 1009.7 |
| 20260508041004 | 38 | 205 | 1.0 | 3.0 | 0.00 | 0.00 | 0.00 | 84 | 1009.8 |
| 20260508040507 | 37 | 221 | 0.0 | 2.0 | 0.00 | 0.00 | 0.00 | 82 | 1009.7 |
| 20260508040013 | 38 | 265 | 1.0 | 2.0 | 0.00 | 0.00 | 0.00 | 83 | 1009.7 |
| 20260508035505 | 38 | 265 | 0.0 | 3.0 | 0.00 | 0.00 | 0.00 | 82 | 1009.7 |
| 20260508035003 | 38 | 265 | 1.0 | 3.0 | 0.00 | 0.00 | 0.00 | 82 | 1009.7 |
| 20260508034517 | 38 | 255 | 1.0 | 3.0 | 0.00 | 0.00 | 0.00 | 82 | 1009.7 |
| 20260508034004 | 38 | 238 | 1.0 | 3.0 | 0.00 | 0.00 | 0.00 | 81 | 1009.7 |
| 20260508033504 | 38 | 243 | 0.0 | 2.0 | 0.00 | 0.00 | 0.00 | 82 | 1009.7 |
| 20260508033018 | 39 | 238 | 0.0 | 2.0 | 0.00 | 0.00 | 0.00 | 82 | 1009.7 |
| 20260508032504 | 39 | 221 | 1.0 | 2.0 | 0.00 | 0.00 | 0.00 | 82 | 1009.7 |
| 20260508032006 | 39 | 221 | 1.0 | 2.0 | 0.00 | 0.00 | 0.00 | 81 | 1009.7 |
| 20260508031512 | 39 | 212 | 0.0 | 2.0 | 0.00 | 0.00 | 0.00 | 82 | 1009.7 |
| 20260508031002 | 40 | 205 | 0.0 | 2.0 | 0.00 | 0.00 | 0.00 | 81 | 1009.6 |
| 20260508030503 | 40 | 238 | 0.0 | 2.0 | 0.00 | 0.00 | 0.00 | 80 | 1009.6 |
| 20260508030014 | 40 | 205 | 1.0 | 3.0 | 0.00 | 0.00 | 0.00 | 79 | 1009.6 |
| 20260508025506 | 40 | 200 | 1.0 | 3.0 | 0.00 | 0.00 | 0.00 | 79 | 1009.5 |
| 20260508025003 | 40 | 212 | 0.0 | 3.0 | 0.00 | 0.00 | 0.00 | 79 | 1009.6 |